Location: Dziadowski
(50.3833°N, 20.0333°E)
Time: 16:05:51
(UTC+00:00)

SL-08 R/B - Pass Details

Date: 18 January 2026
Orbit: 667 x 730 km, 98.5° (Epoch: 10 February)

Event Time Altitude Azimuth Distance (km) Brightness Sun altitude
Rises 05:13:15 0° 147° (SSE) 3,137 7.5 -12.1°
Reaches altitude 10° 05:15:34 10° 142° (SE) 2,223 6.8 -11.8°
Maximum altitude 05:20:17 49° 68° (ENE) 937 4.3 -11.1°
Drops below altitude 10° 05:25:01 10° 354° (N) 2,238 5.7 -10.4°
Sets 05:27:21 0° 350° (N) 3,160 6.4 -10.0°
